SL-16 DEB, 39863

Orbit data source: Space-Track

SL-16 DEB, 39863 is space debris in LEO originally from a launch on Fri, 25 Dec 1992 UTC launched from the Tyuratam Missile And Space Complex (TTMTR). Debris objects in space refer to the collection of defunct objects orbiting the Earth. Examples of debris include non-operational satellites, rocket bodies, and fragments generated from explosions, collisions, or faulty payload assembly.

Loading next visibility...
Identifier
39863, 1992-093LR
Orbit
LEO
Country
Flag of CISCIS
Related business
Manufacturer
Unknown
Mission
Spacecraft
Bus & Motor
Unknown
Mass
Unknown
Launch date (UTC)
1992-12-25 (33 years ago)
Launch vehicle
Unknown
Launch site
Tyuratam Missile And Space Complex (TTMTR)
Object type
Payload
Rocket body
Debris
Shape & HBR
Unknown shape, 0.1 m
Radar Cross Section
Small (<0.1 m²)

Expand to show TLE details & history
Last TLE update: 1 week ago

TLE from 1 week ago
0 SL-16 DEB
1 39863U 92093LR  26167.07341126  .00005861  00000-0  20139-2 0  9995
2 39863  70.9657 288.9525 0108074 160.6309 199.8981 14.33176396619003
Epoch: 2026-06-16T01:45Z
TLE epoch observation values (Epoch: 2026-06-16T01:45:42.732Z)
Latitude
-0.00002°
Longitude
-1.82624°
Altitude
856.412 km
Speed
7.387 km/s
True Right ascension
19h 15m 48s
True Declination
0° 00' 00"
Sunlit
Object was in full shadow at epoch
Visualization orbit readout
Latitude
Unknown
Longitude
Unknown
Altitude
Unknown
Speed
Unknown
Apparent Right ascension
Unknown
Apparent Declination
Unknown
Sunlit
N/A
Visualization observer readout
Local Sidereal Time
05:33:16
Azimuth
Unknown
Elevation
Unknown
Doppler factor
Unknown
Orbital elements
Apogee altitude
856.394 km
Perigee altitude
701.693 km
Semi-major axis
7,157.18 km
Eccentricity
0.01081
Inclination
70.9657°
RAAN
288.9525°
Arg. of periapsis
160.6309°
True anomaly
199.48189°
Mean anomaly
199.8981°
Eccentric anomaly
199.68947°
Mean motion
3.58451 °/min
Orbital period
100.43 mins
BSTAR
0.0020139
Loading maneuver chart data...
Computing Atmospheric mass density...
Loading historical data...
Loading historical data...
Loading historical data...
Loading historical data...
Loading historical data...
Loading historical data...
Loading historical data...

Documentation

Showing up to 5 results
|